Time,TemperatureF,DewpointF,PressureIn,WindDirection,WindDirectionDegrees,WindSpeedMPH,WindSpeedGustMPH,Humidity,HourlyPrecipIn,Conditions,Clouds,dailyrainin,SoftwareType,DateUTC
2014-10-21 00:04:00,46.0,41.1,29.94,NE,50,0.0,12.0,83,0.00,,,0.00,Wunderground v.1.15,2014-10-21 05:04:00,
2014-10-21 00:09:00,45.9,41.3,29.95,NE,50,0.0,12.0,84,0.00,,,0.00,Wunderground v.1.15,2014-10-21 05:09:00,
2014-10-21 00:14:00,45.8,41.2,29.95,NE,50,0.0,12.0,84,0.00,,,0.00,Wunderground v.1.15,2014-10-21 05:14:00,
2014-10-21 00:19:00,45.6,41.0,29.95,NE,50,0.0,12.0,84,0.00,,,0.00,Wunderground v.1.15,2014-10-21 05:19:00,
2014-10-21 00:24:00,45.5,40.9,29.95,NE,50,0.0,12.0,84,0.00,,,0.00,Wunderground v.1.15,2014-10-21 05:24:00,
2014-10-21 00:30:00,45.3,41.1,29.95,NE,50,0.0,12.0,85,0.00,,,0.00,Wunderground v.1.15,2014-10-21 05:30:00,
2014-10-21 00:35:00,45.1,40.9,29.95,NE,50,0.0,12.0,85,0.00,,,0.00,Wunderground v.1.15,2014-10-21 05:35:00,
2014-10-21 00:40:00,44.8,40.9,29.95,NE,50,0.0,12.0,86,0.00,,,0.00,Wunderground v.1.15,2014-10-21 05:40:00,
2014-10-21 00:45:00,44.6,40.7,29.95,NE,50,0.0,12.0,86,0.00,,,0.00,Wunderground v.1.15,2014-10-21 05:45:00,
2014-10-21 00:50:00,44.3,40.4,29.95,NE,50,0.0,12.0,86,0.00,,,0.00,Wunderground v.1.15,2014-10-21 05:50:00,
2014-10-21 00:56:00,44.1,40.5,29.95,NE,50,0.0,12.0,87,0.00,,,0.00,Wunderground v.1.15,2014-10-21 05:56:00,
2014-10-21 01:01:00,44.0,40.4,29.95,ENE,61,0.0,12.0,87,0.00,,,0.00,Wunderground v.1.15,2014-10-21 06:01:00,
2014-10-21 01:06:00,44.1,40.8,29.95,ENE,61,0.0,12.0,88,0.00,,,0.00,Wunderground v.1.15,2014-10-21 06:06:00,
2014-10-21 01:11:00,44.0,40.4,29.95,ENE,61,0.0,12.0,87,0.00,,,0.00,Wunderground v.1.15,2014-10-21 06:11:00,
2014-10-21 01:16:00,43.8,40.2,29.96,ENE,61,0.0,12.0,87,0.00,,,0.00,Wunderground v.1.15,2014-10-21 06:16:00,
2014-10-21 01:22:00,43.6,40.3,29.96,ENE,61,0.0,12.0,88,0.00,,,0.00,Wunderground v.1.15,2014-10-21 06:22:00,
2014-10-21 01:27:00,43.3,40.0,29.96,ENE,61,0.0,12.0,88,0.00,,,0.00,Wunderground v.1.15,2014-10-21 06:27:00,
2014-10-21 01:32:00,43.0,39.7,29.97,ENE,61,0.0,12.0,88,0.00,,,0.00,Wunderground v.1.15,2014-10-21 06:32:00,
2014-10-21 01:37:00,42.7,39.4,29.97,ENE,60,0.0,12.0,88,0.00,,,0.00,Wunderground v.1.15,2014-10-21 06:37:00,
2014-10-21 01:42:00,42.4,39.1,29.97,ENE,61,0.0,12.0,88,0.00,,,0.00,Wunderground v.1.15,2014-10-21 06:42:00,
2014-10-21 01:47:00,42.0,39.0,29.97,ENE,60,0.0,12.0,89,0.00,,,0.00,Wunderground v.1.15,2014-10-21 06:47:00,
2014-10-21 01:52:00,41.8,38.8,29.98,ENE,61,0.0,12.0,89,0.00,,,0.00,Wunderground v.1.15,2014-10-21 06:52:00,
2014-10-21 01:57:00,41.5,38.5,29.98,ENE,61,0.0,12.0,89,0.00,,,0.00,Wunderground v.1.15,2014-10-21 06:57:00,
2014-10-21 02:02:00,41.3,38.6,29.98,ENE,61,0.0,12.0,90,0.00,,,0.00,Wunderground v.1.15,2014-10-21 07:02:00,
2014-10-21 02:07:00,41.3,38.6,29.98,ENE,61,0.0,12.0,90,0.00,,,0.00,Wunderground v.1.15,2014-10-21 07:07:00,
2014-10-21 02:13:00,41.2,38.8,29.99,ENE,61,0.0,12.0,91,0.00,,,0.00,Wunderground v.1.15,2014-10-21 07:13:00,
2014-10-21 02:18:00,41.1,38.7,29.99,ENE,61,0.0,12.0,91,0.00,,,0.00,Wunderground v.1.15,2014-10-21 07:18:00,
2014-10-21 02:23:00,40.9,38.5,29.99,ENE,60,0.0,12.0,91,0.00,,,0.00,Wunderground v.1.15,2014-10-21 07:23:00,
2014-10-21 02:28:00,40.8,38.4,29.99,ENE,61,0.0,12.0,91,0.00,,,0.00,Wunderground v.1.15,2014-10-21 07:28:00,
2014-10-21 02:33:00,40.6,38.2,29.99,ENE,61,0.0,12.0,91,0.00,,,0.00,Wunderground v.1.15,2014-10-21 07:33:00,
2014-10-21 02:38:00,40.6,38.5,29.99,ENE,61,0.0,12.0,92,0.00,,,0.00,Wunderground v.1.15,2014-10-21 07:38:00,
2014-10-21 02:44:00,40.6,38.5,30.00,ENE,61,0.0,12.0,92,0.00,,,0.00,Wunderground v.1.15,2014-10-21 07:44:00,
2014-10-21 02:49:00,40.6,38.5,30.00,ENE,61,0.0,12.0,92,0.00,,,0.00,Wunderground v.1.15,2014-10-21 07:49:00,
2014-10-21 02:54:00,40.5,38.4,30.00,ENE,60,0.0,12.0,92,0.00,,,0.00,Wunderground v.1.15,2014-10-21 07:54:00,
2014-10-21 02:59:00,40.3,38.2,30.00,ENE,61,0.0,12.0,92,0.00,,,0.00,Wunderground v.1.15,2014-10-21 07:59:00,
2014-10-21 03:04:00,40.1,38.0,30.00,ENE,61,0.0,12.0,92,0.00,,,0.00,Wunderground v.1.15,2014-10-21 08:04:00,
2014-10-21 03:10:00,40.0,37.9,30.00,ENE,61,0.0,12.0,92,0.00,,,0.00,Wunderground v.1.15,2014-10-21 08:10:00,
2014-10-21 03:15:00,39.9,37.8,30.00,ENE,60,0.0,12.0,92,0.00,,,0.00,Wunderground v.1.15,2014-10-21 08:15:00,
2014-10-21 03:20:00,39.8,37.7,30.00,ENE,61,0.0,12.0,92,0.00,,,0.00,Wunderground v.1.15,2014-10-21 08:20:00,
2014-10-21 03:25:00,39.8,37.9,30.00,ENE,60,0.0,12.0,93,0.00,,,0.00,Wunderground v.1.15,2014-10-21 08:25:00,
2014-10-21 03:30:00,39.7,37.8,30.00,ENE,61,0.0,12.0,93,0.00,,,0.00,Wunderground v.1.15,2014-10-21 08:30:00,
2014-10-21 03:36:00,39.7,37.8,30.00,ENE,61,0.0,12.0,93,0.00,,,0.00,Wunderground v.1.15,2014-10-21 08:36:00,
2014-10-21 03:41:00,39.7,37.8,30.00,ENE,61,0.0,12.0,93,0.00,,,0.00,Wunderground v.1.15,2014-10-21 08:41:00,
2014-10-21 03:46:00,40.0,38.1,30.00,ENE,61,0.0,12.0,93,0.00,,,0.00,Wunderground v.1.15,2014-10-21 08:46:00,
2014-10-21 03:51:00,40.1,38.2,30.00,ENE,61,0.0,12.0,93,0.00,,,0.00,Wunderground v.1.15,2014-10-21 08:51:00,
2014-10-21 03:56:00,40.3,38.4,30.00,ENE,61,0.0,12.0,93,0.00,,,0.00,Wunderground v.1.15,2014-10-21 08:56:00,
2014-10-21 04:02:00,40.7,39.1,30.00,ENE,61,0.0,12.0,94,0.00,,,0.00,Wunderground v.1.15,2014-10-21 09:02:00,
2014-10-21 04:07:00,40.9,39.3,30.00,ENE,61,0.0,12.0,94,0.00,,,0.00,Wunderground v.1.15,2014-10-21 09:07:00,
2014-10-21 04:12:00,41.1,39.2,30.00,ENE,61,0.0,12.0,93,0.00,,,0.00,Wunderground v.1.15,2014-10-21 09:12:00,
2014-10-21 04:17:00,41.1,39.2,30.00,ENE,61,0.0,12.0,93,0.00,,,0.00,Wunderground v.1.15,2014-10-21 09:17:00,
2014-10-21 04:22:00,41.1,39.2,30.00,ENE,61,0.0,12.0,93,0.00,,,0.00,Wunderground v.1.15,2014-10-21 09:22:00,
2014-10-21 04:28:00,41.2,39.3,30.01,ENE,60,0.0,12.0,93,0.00,,,0.00,Wunderground v.1.15,2014-10-21 09:28:00,
2014-10-21 04:33:00,41.2,39.3,30.01,ENE,61,0.0,12.0,93,0.00,,,0.00,Wunderground v.1.15,2014-10-21 09:33:00,
2014-10-21 04:38:00,41.2,39.3,30.01,ENE,61,0.0,12.0,93,0.00,,,0.00,Wunderground v.1.15,2014-10-21 09:38:00,
2014-10-21 04:43:00,41.2,39.3,30.01,ENE,61,0.0,12.0,93,0.00,,,0.00,Wunderground v.1.15,2014-10-21 09:43:00,
2014-10-21 04:48:00,41.2,39.3,30.01,ENE,61,0.0,12.0,93,0.00,,,0.00,Wunderground v.1.15,2014-10-21 09:48:00,
2014-10-21 04:54:00,41.3,39.4,30.01,ENE,61,0.0,12.0,93,0.00,,,0.00,Wunderground v.1.15,2014-10-21 09:54:00,
2014-10-21 04:59:00,41.3,39.4,30.01,ENE,61,0.0,12.0,93,0.00,,,0.00,Wunderground v.1.15,2014-10-21 09:59:00,
2014-10-21 05:04:00,41.3,39.2,30.01,ENE,61,0.0,12.0,92,0.00,,,0.00,Wunderground v.1.15,2014-10-21 10:04:00,
2014-10-21 05:09:00,41.3,39.2,30.01,ENE,60,0.0,12.0,92,0.00,,,0.00,Wunderground v.1.15,2014-10-21 10:09:00,
2014-10-21 05:14:00,41.3,39.2,30.01,ENE,60,0.0,12.0,92,0.00,,,0.00,Wunderground v.1.15,2014-10-21 10:14:00,
2014-10-21 05:19:00,41.3,39.2,30.02,ENE,61,0.0,12.0,92,0.00,,,0.00,Wunderground v.1.15,2014-10-21 10:19:00,
2014-10-21 05:24:00,41.1,39.0,30.02,ENE,61,0.0,12.0,92,0.00,,,0.00,Wunderground v.1.15,2014-10-21 10:24:00,
2014-10-21 05:29:00,40.9,38.8,30.02,ENE,60,0.0,12.0,92,0.00,,,0.00,Wunderground v.1.15,2014-10-21 10:29:00,
2014-10-21 05:34:00,40.8,38.7,30.01,ENE,60,1.0,12.0,92,0.00,,,0.00,Wunderground v.1.15,2014-10-21 10:34:00,
2014-10-21 05:39:00,40.7,38.8,30.01,ENE,61,0.0,12.0,93,0.00,,,0.00,Wunderground v.1.15,2014-10-21 10:39:00,
2014-10-21 05:45:00,40.7,38.8,30.01,ENE,61,0.0,12.0,93,0.00,,,0.00,Wunderground v.1.15,2014-10-21 10:45:00,
2014-10-21 05:50:00,40.7,38.8,30.01,ENE,61,0.0,12.0,93,0.00,,,0.00,Wunderground v.1.15,2014-10-21 10:50:00,
2014-10-21 05:55:00,40.7,38.8,30.02,ENE,61,0.0,12.0,93,0.00,,,0.00,Wunderground v.1.15,2014-10-21 10:55:00,
2014-10-21 06:00:00,40.6,38.7,30.02,ENE,61,0.0,12.0,93,0.00,,,0.00,Wunderground v.1.15,2014-10-21 11:00:00,
2014-10-21 06:05:00,40.6,38.7,30.02,ENE,60,0.0,12.0,93,0.00,,,0.00,Wunderground v.1.15,2014-10-21 11:05:00,
2014-10-21 06:10:00,40.6,38.7,30.02,ENE,60,0.0,12.0,93,0.00,,,0.00,Wunderground v.1.15,2014-10-21 11:10:00,
2014-10-21 06:16:00,40.4,38.5,30.02,ENE,57,0.0,12.0,93,0.00,,,0.00,Wunderground v.1.15,2014-10-21 11:16:00,
2014-10-21 06:21:00,40.4,38.5,30.02,NE,56,0.0,12.0,93,0.00,,,0.00,Wunderground v.1.15,2014-10-21 11:21:00,
2014-10-21 06:26:00,40.4,38.5,30.02,NE,56,0.0,12.0,93,0.00,,,0.00,Wunderground v.1.15,2014-10-21 11:26:00,
2014-10-21 06:31:00,40.4,38.5,30.03,NE,56,0.0,12.0,93,0.00,,,0.00,Wunderground v.1.15,2014-10-21 11:31:00,
2014-10-21 06:36:00,40.3,38.4,30.03,ENE,57,0.0,12.0,93,0.00,,,0.00,Wunderground v.1.15,2014-10-21 11:36:00,
2014-10-21 06:42:00,40.3,38.4,30.03,ENE,57,0.0,12.0,93,0.00,,,0.00,Wunderground v.1.15,2014-10-21 11:42:00,
2014-10-21 06:47:00,40.3,38.4,30.03,ENE,57,0.0,12.0,93,0.00,,,0.00,Wunderground v.1.15,2014-10-21 11:47:00,
2014-10-21 06:52:00,40.2,38.3,30.03,ENE,57,0.0,12.0,93,0.00,,,0.00,Wunderground v.1.15,2014-10-21 11:52:00,
2014-10-21 06:57:00,40.1,38.2,30.03,ENE,57,0.0,12.0,93,0.00,,,0.00,Wunderground v.1.15,2014-10-21 11:57:00,
2014-10-21 07:02:00,40.0,38.1,30.03,NE,56,0.0,12.0,93,0.00,,,0.00,Wunderground v.1.15,2014-10-21 12:02:00,
2014-10-21 07:08:00,39.9,38.0,30.03,ENE,57,0.0,12.0,93,0.00,,,0.00,Wunderground v.1.15,2014-10-21 12:08:00,
2014-10-21 07:13:00,39.9,38.0,30.03,ENE,57,0.0,12.0,93,0.00,,,0.00,Wunderground v.1.15,2014-10-21 12:13:00,
2014-10-21 07:18:00,39.7,37.8,30.03,NE,56,0.0,12.0,93,0.00,,,0.00,Wunderground v.1.15,2014-10-21 12:18:00,
2014-10-21 07:23:00,39.6,37.7,30.03,ENE,57,0.0,12.0,93,0.00,,,0.00,Wunderground v.1.15,2014-10-21 12:23:00,
2014-10-21 07:28:00,39.5,37.6,30.03,ENE,65,0.0,12.0,93,0.00,,,0.00,Wunderground v.1.15,2014-10-21 12:28:00,
2014-10-21 07:34:00,39.5,37.6,30.04,ENE,65,0.0,12.0,93,0.00,,,0.00,Wunderground v.1.15,2014-10-21 12:34:00,
2014-10-21 07:39:00,39.2,37.3,30.04,ENE,70,0.0,12.0,93,0.00,,,0.00,Wunderground v.1.15,2014-10-21 12:39:00,
2014-10-21 07:44:00,38.8,36.9,30.04,NE,49,0.0,12.0,93,0.00,,,0.00,Wunderground v.1.15,2014-10-21 12:44:00,
2014-10-21 07:49:00,39.2,37.6,30.04,East,91,0.0,12.0,94,0.00,,,0.00,Wunderground v.1.15,2014-10-21 12:49:00,
2014-10-21 07:54:00,38.7,36.9,30.04,East,90,0.0,12.0,93,0.00,,,0.00,Wunderground v.1.15,2014-10-21 12:54:00,
2014-10-21 08:00:00,38.7,37.1,30.04,East,90,0.0,12.0,94,0.00,,,0.00,Wunderground v.1.15,2014-10-21 13:00:00,
2014-10-21 08:05:00,38.7,37.1,30.04,East,88,0.0,12.0,94,0.00,,,0.00,Wunderground v.1.15,2014-10-21 13:05:00,
2014-10-21 08:10:00,38.7,37.1,30.04,East,88,0.0,12.0,94,0.00,,,0.00,Wunderground v.1.15,2014-10-21 13:10:00,
2014-10-21 08:15:00,38.8,37.2,30.05,East,81,0.0,12.0,94,0.00,,,0.00,Wunderground v.1.15,2014-10-21 13:15:00,
2014-10-21 08:20:00,39.3,37.7,30.05,East,79,0.0,12.0,94,0.00,,,0.00,Wunderground v.1.15,2014-10-21 13:20:00,
2014-10-21 08:26:00,39.5,37.9,30.05,NE,51,0.0,12.0,94,0.00,,,0.00,Wunderground v.1.15,2014-10-21 13:26:00,
2014-10-21 08:31:00,39.7,38.1,30.05,NE,51,0.0,12.0,94,0.00,,,0.00,Wunderground v.1.15,2014-10-21 13:31:00,
2014-10-21 08:36:00,39.7,38.1,30.06,NE,51,0.0,12.0,94,0.00,,,0.00,Wunderground v.1.15,2014-10-21 13:36:00,
2014-10-21 08:41:00,40.0,38.4,30.06,East,82,0.0,12.0,94,0.00,,,0.00,Wunderground v.1.15,2014-10-21 13:41:00,
2014-10-21 08:46:00,40.4,38.8,30.06,ENE,62,0.0,12.0,94,0.00,,,0.00,Wunderground v.1.15,2014-10-21 13:46:00,
2014-10-21 08:51:00,41.2,39.6,30.06,NNE,19,0.0,12.0,94,0.00,,,0.00,Wunderground v.1.15,2014-10-21 13:51:00,
2014-10-21 08:56:00,41.9,40.3,30.06,NE,39,0.0,12.0,94,0.00,,,0.00,Wunderground v.1.15,2014-10-21 13:56:00,
2014-10-21 09:02:00,42.5,40.6,30.06,WNW,302,1.0,12.0,93,0.00,,,0.00,Wunderground v.1.15,2014-10-21 14:02:00,
2014-10-21 09:07:00,43.1,40.9,30.06,NNE,16,1.0,12.0,92,0.00,,,0.00,Wunderground v.1.15,2014-10-21 14:07:00,
2014-10-21 09:12:00,43.6,41.1,30.06,ENE,70,1.0,12.0,91,0.00,,,0.00,Wunderground v.1.15,2014-10-21 14:12:00,
2014-10-21 09:17:00,44.1,41.4,30.06,North,349,1.0,12.0,90,0.00,,,0.00,Wunderground v.1.15,2014-10-21 14:17:00,
2014-10-21 09:22:00,44.6,41.6,30.06,NNE,25,1.0,12.0,89,0.00,,,0.00,Wunderground v.1.15,2014-10-21 14:22:00,
2014-10-21 09:27:00,45.0,41.4,30.07,East,99,1.0,12.0,87,0.00,,,0.00,Wunderground v.1.15,2014-10-21 14:27:00,
2014-10-21 09:32:00,45.3,41.7,30.06,NE,54,1.0,12.0,87,0.00,,,0.00,Wunderground v.1.15,2014-10-21 14:32:00,
2014-10-21 09:37:00,45.5,41.6,30.06,NNE,13,2.0,12.0,86,0.00,,,0.00,Wunderground v.1.15,2014-10-21 14:37:00,
2014-10-21 09:43:00,45.8,41.9,30.07,NE,36,1.0,12.0,86,0.00,,,0.00,Wunderground v.1.15,2014-10-21 14:43:00,
2014-10-21 09:48:00,46.0,41.4,30.06,NE,46,2.0,12.0,84,0.00,,,0.00,Wunderground v.1.15,2014-10-21 14:48:00,
2014-10-21 09:53:00,46.2,41.3,30.06,NNW,332,2.0,12.0,83,0.00,,,0.00,Wunderground v.1.15,2014-10-21 14:53:00,
2014-10-21 09:58:00,46.3,41.1,30.06,ENE,78,2.0,12.0,82,0.00,,,0.00,Wunderground v.1.15,2014-10-21 14:58:00,
2014-10-21 10:03:00,46.4,41.2,30.06,NE,43,2.0,12.0,82,0.00,,,0.00,Wunderground v.1.15,2014-10-21 15:03:00,
2014-10-21 10:08:00,46.6,41.4,30.06,NE,42,2.0,12.0,82,0.00,,,0.00,Wunderground v.1.15,2014-10-21 15:08:00,
2014-10-21 10:14:00,46.7,41.5,30.06,North,359,1.0,12.0,82,0.00,,,0.00,Wunderground v.1.15,2014-10-21 15:14:00,
2014-10-21 10:19:00,46.8,41.6,30.06,NNW,340,1.0,12.0,82,0.00,,,0.00,Wunderground v.1.15,2014-10-21 15:19:00,
2014-10-21 10:24:00,47.1,41.6,30.06,North,352,1.0,12.0,81,0.00,,,0.00,Wunderground v.1.15,2014-10-21 15:24:00,
2014-10-21 10:29:00,47.3,41.8,30.06,NE,43,2.0,12.0,81,0.00,,,0.00,Wunderground v.1.15,2014-10-21 15:29:00,
2014-10-21 10:34:00,47.5,42.0,30.06,NNE,25,2.0,12.0,81,0.00,,,0.00,Wunderground v.1.15,2014-10-21 15:34:00,
2014-10-21 10:40:00,47.7,41.8,30.06,North,357,2.0,12.0,80,0.00,,,0.00,Wunderground v.1.15,2014-10-21 15:40:00,
2014-10-21 10:45:00,48.1,42.2,30.06,NW,321,1.0,12.0,80,0.00,,,0.00,Wunderground v.1.15,2014-10-21 15:45:00,
2014-10-21 10:50:00,48.6,42.0,30.06,NE,41,1.0,12.0,78,0.00,,,0.00,Wunderground v.1.15,2014-10-21 15:50:00,
2014-10-21 10:55:00,48.9,42.3,30.06,East,93,1.0,12.0,78,0.00,,,0.00,Wunderground v.1.15,2014-10-21 15:55:00,
2014-10-21 11:00:00,49.2,42.3,30.06,NNE,32,1.0,12.0,77,0.00,,,0.00,Wunderground v.1.15,2014-10-21 16:00:00,
2014-10-21 11:06:00,49.4,42.5,30.06,ENE,65,2.0,12.0,77,0.00,,,0.00,Wunderground v.1.15,2014-10-21 16:06:00,
2014-10-21 11:11:00,49.9,42.6,30.06,North,355,1.0,12.0,76,0.00,,,0.00,Wunderground v.1.15,2014-10-21 16:11:00,
2014-10-21 11:16:00,50.2,42.9,30.06,NE,41,2.0,12.0,76,0.00,,,0.00,Wunderground v.1.15,2014-10-21 16:16:00,
2014-10-21 11:21:00,50.2,42.6,30.06,North,9,2.0,12.0,75,0.00,,,0.00,Wunderground v.1.15,2014-10-21 16:21:00,
2014-10-21 11:26:00,50.5,42.9,30.06,NE,36,2.0,12.0,75,0.00,,,0.00,Wunderground v.1.15,2014-10-21 16:26:00,
2014-10-21 11:32:00,50.8,43.2,30.06,West,277,1.0,12.0,75,0.00,,,0.00,Wunderground v.1.15,2014-10-21 16:32:00,
2014-10-21 11:37:00,51.0,43.4,30.05,North,349,1.0,12.0,75,0.00,,,0.00,Wunderground v.1.15,2014-10-21 16:37:00,
2014-10-21 11:42:00,51.3,43.6,30.05,ESE,105,1.0,12.0,75,0.00,,,0.00,Wunderground v.1.15,2014-10-21 16:42:00,
2014-10-21 11:47:00,51.6,43.6,30.05,NNW,337,2.0,12.0,74,0.00,,,0.00,Wunderground v.1.15,2014-10-21 16:47:00,
2014-10-21 11:52:00,52.0,44.0,30.05,WNW,287,2.0,12.0,74,0.00,,,0.00,Wunderground v.1.15,2014-10-21 16:52:00,
2014-10-21 11:58:00,52.4,43.6,30.05,SW,229,1.0,12.0,72,0.00,,,0.00,Wunderground v.1.15,2014-10-21 16:58:00,
2014-10-21 12:03:00,52.6,43.5,30.05,NNE,31,2.0,12.0,71,0.00,,,0.00,Wunderground v.1.15,2014-10-21 17:03:00,
2014-10-21 12:08:00,52.9,43.7,30.05,NNW,331,2.0,12.0,71,0.00,,,0.00,Wunderground v.1.15,2014-10-21 17:08:00,
2014-10-21 12:13:00,53.2,44.0,30.05,SE,141,1.0,12.0,71,0.00,,,0.00,Wunderground v.1.15,2014-10-21 17:13:00,
2014-10-21 12:18:00,53.5,43.6,30.05,NW,323,1.0,12.0,69,0.00,,,0.00,Wunderground v.1.15,2014-10-21 17:18:00,
2014-10-21 12:23:00,53.7,43.8,30.05,NE,45,2.0,12.0,69,0.00,,,0.00,Wunderground v.1.15,2014-10-21 17:23:00,
2014-10-21 12:28:00,53.9,43.6,30.05,East,82,2.0,12.0,68,0.00,,,0.00,Wunderground v.1.15,2014-10-21 17:28:00,
2014-10-21 12:33:00,54.2,43.9,30.05,ESE,121,1.0,12.0,68,0.00,,,0.00,Wunderground v.1.15,2014-10-21 17:33:00,
2014-10-21 12:38:00,54.5,43.8,30.04,NE,38,1.0,12.0,67,0.00,,,0.00,Wunderground v.1.15,2014-10-21 17:38:00,
2014-10-21 12:44:00,54.6,43.9,30.04,North,11,1.0,12.0,67,0.00,,,0.00,Wunderground v.1.15,2014-10-21 17:44:00,
2014-10-21 12:49:00,54.7,44.0,30.04,ENE,72,1.0,12.0,67,0.00,,,0.00,Wunderground v.1.15,2014-10-21 17:49:00,
2014-10-21 12:54:00,54.9,44.5,30.04,ESE,122,1.0,12.0,68,0.00,,,0.00,Wunderground v.1.15,2014-10-21 17:54:00,
2014-10-21 12:59:00,54.9,44.1,30.04,East,101,2.0,12.0,67,0.00,,,0.00,Wunderground v.1.15,2014-10-21 17:59:00,
2014-10-21 13:04:00,55.1,44.3,30.04,NNE,15,2.0,12.0,67,0.00,,,0.00,Wunderground v.1.15,2014-10-21 18:04:00,
2014-10-21 13:09:00,55.2,44.4,30.04,NW,324,2.0,12.0,67,0.00,,,0.00,Wunderground v.1.15,2014-10-21 18:09:00,
2014-10-21 13:14:00,55.4,44.6,30.04,NE,38,2.0,12.0,67,0.00,,,0.00,Wunderground v.1.15,2014-10-21 18:14:00,
2014-10-21 13:20:00,55.6,44.8,30.03,North,354,2.0,12.0,67,0.00,,,0.00,Wunderground v.1.15,2014-10-21 18:20:00,